[[{"header":{"parameterUnit":"m.s-1","parameterCategory":1,"la1":30.2991,"la2":30.254,"lo1":-89.0895,"lo2":-89.0444,"dy":0.0017,"dx":0.0017,"nx":28,"ny":28,"refTime":"2024-08-09T21:00:00:Z","depth":0,"parameterNumber":2,"parameterNumberName":"U-component_of_WINDS"},"data":[0,0,0,0,0,0,0,0,0,0,0,0,0,0,0,0,0,0,0,0,0,0,0,0,0,0,0,0,0,0,0,0,0,0,0,0,0,0,0,0,0,0,0,0,0,0,0,0,0,0,0,0,0,0,0,0,0,0,0.3602,0.3604,0,0.3715,0.3716,0.3717,0.3726,0.3725,0.3724,0.3723,0.3844,0.3848,0.3853,0,0,0,0,0,0,0,0,0,0,0,0,0,0.3405,0.3409,0.3602,0.3604,0.3605,0.3714,0.3716,0.3717,0.3727,0.3725,0.3724,0.3722,0.3843,0.3848,0.3853,0,0,0,0,0,0,0,0,0,0,0,0,0,0.3502,0.341,0.3602,0.3623,0.3626,0.3714,0.3716,0.3718,0.3727,0.3725,0.3723,0.3721,0.3841,0.3847,0.3854,0.3931,0,0,0.3874,0.3877,0,0,0,0,0,0,0,0,0.3496,0.3509,0.3618,0.3621,0.3625,0.3704,0.3691,0.379,0.3727,0.3689,0.3723,0.3721,0.38,0.3809,0.3835,0.3937,0.3942,0.3875,0.3879,0.3881,0.3883,0,0,0,0,0,0,0,0.3489,0.3504,0.3647,0.362,0.3624,0.3629,0.3641,0.371,0.3753,0.3692,0.3693,0.3706,0.3801,0.3828,0.3838,0.3944,0.3874,0.388,0.3884,0.3887,0.4122,0.4125,0,0,0,0,0,0,0.3478,0.3498,0.3643,0.365,0.3554,0.3634,0.3647,0.3681,0.3753,0.3762,0.3707,0.3706,0.3818,0.383,0.3842,0.3942,0.3881,0.3887,0.3891,0.412,0.4123,0.4125,0,0,0,0,0,0,0.3473,0.349,0.3639,0.3575,0.3594,0.364,0.3677,0.3684,0.3711,0.3764,0.3773,0.3726,0.3817,0.3833,0.391,0.3946,0.389,0.3896,0.4117,0.4121,0.4124,0.4139,0,0,0,0,0,0,0.3468,0.3489,0.3516,0.3575,0.3597,0.3702,0.3679,0.3688,0.3722,0.3721,0.3784,0.3793,0.3817,0.39,0.3917,0.3954,0.3902,0.4114,0.4119,0.4123,0.4135,0.4142,0.4148,0,0,0,0,0,0.346,0.3516,0.3517,0.3535,0.3632,0.3704,0.3717,0.3741,0.3724,0.3755,0.3789,0.3791,0.3939,0.3908,0.3927,0.3966,0.4112,0.4118,0.4123,0.4132,0.4141,0.4148,0,0,0,0,0,0,0.3461,0.3524,0.3526,0.3601,0.3647,0.3705,0.3743,0.3748,0.3801,0.3799,0.3829,0.3843,0.392,0.3951,0.3915,0.4048,0.4024,0.4034,0.4025,0.4034,0.404,0.4032,0.3907,0,0,0,0,0,0.3469,0.352,0.3573,0.3635,0.3658,0.3697,0.3729,0.3744,0.3793,0.3813,0.3853,0.3903,0.3962,0.3999,0.4055,0.414,0.4156,0.4177,0.4183,0.4188,0.4196,0.4249,0.426,0.4143,0.4143,0.4142,0,0,0.3488,0.3529,0.3559,0.3636,0.3673,0.3728,0.3713,0.377,0.3813,0.3822,0.3898,0.393,0.3988,0.4071,0.4109,0.4099,0.4232,0.4195,0.4198,0.4204,0.4255,0.4266,0.4276,0.4146,0.4145,0.4145,0,0,0.3551,0.3585,0.3642,0.368,0.3736,0.3763,0.3777,0.3835,0.3856,0.3932,0.3942,0.3995,0.4093,0.4136,0.417,0.4254,0.426,0.4272,0.4306,0.4357,0.4366,0.4375,0.4409,0.442,0.428,0.428,0.428,0,0.3567,0.3648,0.3671,0.373,0.3766,0.3776,0.3837,0.3874,0.3946,0.3973,0.3959,0.4086,0.4126,0.4221,0.4242,0.4268,0.4289,0.4265,0.4362,0.4371,0.438,0.4413,0.4425,0.4281,0.4281,0.4281,0.4281,0,0.3668,0.3724,0.3764,0.3834,0.3874,0.3934,0.397,0.4008,0.4021,0.405,0.4131,0.418,0.4248,0.4272,0.4284,0.437,0.4363,0.4356,0.4333,0.4392,0.4423,0.4436,0.4283,0.4282,0.4282,0.4282,0,0,0.3732,0.3816,0.383,0.3864,0.3929,0.3975,0.4038,0.4103,0.4138,0.4189,0.4245,0.433,0.4326,0.4365,0.4384,0.4428,0.4497,0.4416,0.4418,0.4433,0.4601,0.4607,0.4621,0.4501,0.4503,0.4505,0.4597,0,0.3804,0.3913,0.3938,0.4033,0.4088,0.4101,0.4157,0.4205,0.4235,0.4289,0.4323,0.4385,0.4371,0.4396,0.444,0.4479,0.4532,0.4473,0.4558,0.456,0.4544,0.4637,0.4643,0.4727,0.4609,0.4611,0.4613,0,0.3902,0.3955,0.4056,0.4118,0.4142,0.4191,0.4256,0.4306,0.4363,0.4383,0.4429,0.4444,0.4514,0.4487,0.4587,0.4546,0.4583,0.4608,0.4612,0.4623,0.4591,0.4653,0.4754,0.4768,0.4632,0.463,0.4629,0,0.3943,0.404,0.4114,0.4142,0.4215,0.425,0.4283,0.4338,0.4378,0.4436,0.4463,0.4529,0.4566,0.4618,0.4653,0.4629,0.4752,0.4726,0.4774,0.4773,0.48,0.4798,0.4911,0.4819,0.4819,0.4819,0.4818,0,0.4022,0.4084,0.4134,0.4179,0.4251,0.4281,0.4352,0.4386,0.4436,0.4491,0.4507,0.4559,0.46,0.466,0.4688,0.4769,0.4785,0.4806,0.4813,0.4806,0.4804,0.4832,0.4828,0.4822,0.4821,0.4821,0.482,0,0.408,0.4115,0.4197,0.4261,0.4279,0.4329,0.4386,0.4433,0.4464,0.4535,0.4554,0.4604,0.4676,0.4715,0.4804,0.4824,0.4916,0.4919,0.4896,0.49,0.4946,0.4943,0.5083,0.5105,0.4996,0.4997,0.4998,0,0.4129,0.4177,0.4247,0.4284,0.4318,0.4378,0.4419,0.4453,0.4495,0.4567,0.4607,0.4679,0.4738,0.4853,0.49,0.497,0.4977,0.5021,0.4987,0.498,0.4982,0.498,0.4987,0.5028,0.5029,0.5029,0.503,0,0.4214,0.423,0.4287,0.4352,0.4401,0.4454,0.4507,0.4537,0.4581,0.4629,0.4701,0.4748,0.484,0.4914,0.4989,0.5027,0.5038,0.504,0.5056,0.505,0.5036,0.5048,0.4915,0.5037,0.5036,0.5036,0.5035,0.5035,0.4271,0.4316,0.4374,0.4439,0.4482,0.4532,0.4581,0.4619,0.468,0.4757,0.4774,0.4852,0.4914,0.5015,0.5056,0.512,0.5112,0.5133,0.5139,0.5145,0.5149,0.5024,0.5134,0.5134,0.5134,0.5133,0.5133,0,0.436,0.4398,0.4457,0.4531,0.4584,0.4588,0.4648,0.4693,0.476,0.4816,0.4875,0.4962,0.5034,0.5088,0.5163,0.5205,0.5212,0.5224,0.5222,0.5232,0.5149,0.513,0.5217,0.5217,0.5217,0.5217,0.5217,0.5217,0.4412,0.449,0.4514,0.4616,0.4655,0.473,0.4765,0.4813,0.4858,0.4954,0.5014,0.5048,0.5105,0.5185,0.5254,0.5268,0.5297,0.5308,0.5324,0.5246,0.5237,0.5229,0.5211,0.5313,0.5314,0.5402,0.5403,0.5403]},{"header":{"parameterUnit":"m.s-1","parameterCategory":1,"la1":30.2991,"la2":30.254,"lo1":-89.0895,"lo2":-89.0444,"dy":0.0017,"dx":0.0017,"nx":28,"ny":28,"refTime":"2024-08-09T21:00:00:Z","depth":0,"parameterNumber":3,"parameterNumberName":"V-component_of_WINDS"},"data":[0,0,0,0,0,0,0,0,0,0,0,0,0,0,0,0,0,0,0,0,0,0,0,0,0,0,0,0,0,0,0,0,0,0,0,0,0,0,0,0,0,0,0,0,0,0,0,0,0,0,0,0,0,0,0,0,0,0,-1.4581,-1.4579,0,-1.4361,-1.4359,-1.4356,-1.4308,-1.431,-1.4312,-1.4313,-1.4081,-1.4074,-1.4066,0,0,0,0,0,0,0,0,0,0,0,0,0,-1.4953,-1.4946,-1.4581,-1.4579,-1.4576,-1.4362,-1.4358,-1.4355,-1.4308,-1.431,-1.4312,-1.4314,-1.4084,-1.4075,-1.4066,0,0,0,0,0,0,0,0,0,0,0,0,0,-1.4768,-1.4944,-1.4582,-1.4527,-1.4519,-1.4362,-1.4358,-1.4355,-1.4308,-1.431,-1.4313,-1.4315,-1.4087,-1.4076,-1.4064,-1.3944,0,0,-1.4029,-1.4024,0,0,0,0,0,0,0,0,-1.4778,-1.4754,-1.4537,-1.453,-1.4522,-1.4365,-1.4404,-1.4217,-1.4307,-1.4388,-1.4313,-1.4316,-1.4173,-1.4155,-1.4108,-1.3934,-1.3924,-1.4028,-1.4021,-1.4016,-1.4013,0,0,0,0,0,0,0,-1.4791,-1.4763,-1.4494,-1.4534,-1.4525,-1.451,-1.4487,-1.4369,-1.4269,-1.4381,-1.4377,-1.4352,-1.4169,-1.4119,-1.4102,-1.392,-1.4028,-1.4018,-1.4011,-1.4007,-1.3633,-1.3631,0,0,0,0,0,0,-1.4815,-1.4774,-1.4501,-1.4487,-1.4659,-1.4502,-1.4475,-1.4413,-1.4271,-1.4251,-1.435,-1.4351,-1.4138,-1.4116,-1.4094,-1.3942,-1.4016,-1.4005,-1.3999,-1.3636,-1.3633,-1.363,0,0,0,0,0,0,-1.4823,-1.4791,-1.451,-1.463,-1.4593,-1.4493,-1.4423,-1.4407,-1.4357,-1.4247,-1.4229,-1.4318,-1.4139,-1.411,-1.3982,-1.3933,-1.4,-1.399,-1.364,-1.3635,-1.3631,-1.3639,0,0,0,0,0,0,-1.4834,-1.4794,-1.4749,-1.4629,-1.4587,-1.4404,-1.442,-1.4401,-1.4338,-1.4336,-1.4212,-1.4193,-1.4138,-1.3999,-1.397,-1.3919,-1.3981,-1.3644,-1.3638,-1.3633,-1.3642,-1.3635,-1.3629,0,0,0,0,0,-1.4847,-1.4759,-1.4747,-1.4715,-1.4529,-1.4401,-1.4376,-1.4317,-1.4334,-1.4287,-1.4216,-1.4197,-1.3944,-1.3987,-1.3953,-1.3898,-1.3647,-1.364,-1.3633,-1.3645,-1.3636,-1.3629,0,0,0,0,0,0,-1.4874,-1.4743,-1.4728,-1.4599,-1.4512,-1.4393,-1.4332,-1.431,-1.4214,-1.4216,-1.4144,-1.4117,-1.3992,-1.3932,-1.3982,-1.3773,-1.3796,-1.3782,-1.3816,-1.3807,-1.38,-1.3816,-1.3971,0,0,0,0,0,-1.4865,-1.4775,-1.4664,-1.4561,-1.4518,-1.4433,-1.4375,-1.4336,-1.4242,-1.4204,-1.4124,-1.4032,-1.3931,-1.3866,-1.3767,-1.3634,-1.3605,-1.3579,-1.3573,-1.3568,-1.3556,-1.3478,-1.3465,-1.3607,-1.3608,-1.3608,0,0,-1.4845,-1.4762,-1.4709,-1.4564,-1.4492,-1.4397,-1.4402,-1.4301,-1.4229,-1.4188,-1.4062,-1.4001,-1.3892,-1.3761,-1.3698,-1.3707,-1.351,-1.3559,-1.3556,-1.3546,-1.347,-1.3456,-1.3444,-1.3603,-1.3604,-1.3604,0,0,-1.476,-1.469,-1.4595,-1.4523,-1.4415,-1.4359,-1.4336,-1.422,-1.4178,-1.4051,-1.4018,-1.393,-1.3759,-1.3683,-1.3621,-1.3507,-1.3485,-1.3477,-1.3441,-1.3366,-1.3355,-1.3344,-1.3301,-1.3286,-1.3466,-1.3466,-1.3466,0,-1.4748,-1.4606,-1.4548,-1.4449,-1.4385,-1.4346,-1.4248,-1.418,-1.4044,-1.3999,-1.4011,-1.3795,-1.3719,-1.3568,-1.354,-1.3493,-1.3462,-1.349,-1.3362,-1.335,-1.334,-1.3297,-1.3282,-1.3466,-1.3466,-1.3466,-1.3466,0,-1.4596,-1.4498,-1.4434,-1.4305,-1.4234,-1.4136,-1.406,-1.3995,-1.3963,-1.3905,-1.3774,-1.3683,-1.3564,-1.3526,-1.3493,-1.3369,-1.3377,-1.3377,-1.3397,-1.3327,-1.3286,-1.3269,-1.3465,-1.3465,-1.3465,-1.3465,0,0,-1.4519,-1.4361,-1.4338,-1.4279,-1.4156,-1.4078,-1.3977,-1.3863,-1.3807,-1.3714,-1.3626,-1.3482,-1.348,-1.3411,-1.3369,-1.3304,-1.3216,-1.331,-1.3307,-1.3294,-1.307,-1.3069,-1.3052,-1.3202,-1.3199,-1.3196,-1.3078,0,-1.4417,-1.4238,-1.4182,-1.4031,-1.3938,-1.39,-1.3812,-1.3726,-1.3669,-1.3579,-1.3515,-1.3414,-1.3421,-1.3378,-1.3312,-1.3241,-1.3169,-1.3249,-1.3115,-1.3111,-1.3141,-1.3031,-1.303,-1.2923,-1.3062,-1.3059,-1.3057,0,-1.4273,-1.418,-1.4021,-1.3909,-1.3868,-1.379,-1.368,-1.3596,-1.3497,-1.346,-1.3382,-1.3346,-1.3236,-1.3266,-1.3112,-1.3168,-1.311,-1.3067,-1.3061,-1.3044,-1.3078,-1.3008,-1.2888,-1.2871,-1.3032,-1.3034,-1.3036,0,-1.423,-1.4065,-1.3948,-1.3898,-1.3766,-1.3711,-1.3653,-1.3557,-1.3491,-1.3394,-1.335,-1.3242,-1.3182,-1.3097,-1.3032,-1.306,-1.2883,-1.2908,-1.2846,-1.2848,-1.2808,-1.2811,-1.2675,-1.2776,-1.2777,-1.2777,-1.2777,0,-1.412,-1.4023,-1.3926,-1.3854,-1.3743,-1.368,-1.3571,-1.351,-1.3425,-1.3338,-1.3298,-1.3217,-1.3136,-1.3044,-1.2992,-1.2871,-1.2844,-1.2809,-1.2796,-1.2811,-1.2815,-1.277,-1.2775,-1.2772,-1.2773,-1.2774,-1.2775,0,-1.4052,-1.3984,-1.3853,-1.3739,-1.3708,-1.3631,-1.3532,-1.3458,-1.3401,-1.3291,-1.3261,-1.3169,-1.3058,-1.2985,-1.2843,-1.2807,-1.2675,-1.2665,-1.2709,-1.2702,-1.2643,-1.2649,-1.247,-1.2443,-1.2566,-1.2565,-1.2564,0,-1.3985,-1.3909,-1.3788,-1.3728,-1.367,-1.3574,-1.3507,-1.3441,-1.3373,-1.3254,-1.3194,-1.3081,-1.2986,-1.281,-1.2729,-1.2619,-1.2604,-1.255,-1.2587,-1.2604,-1.26,-1.2604,-1.2595,-1.2543,-1.2542,-1.2541,-1.254,0,-1.3872,-1.3842,-1.3749,-1.3643,-1.3565,-1.3478,-1.3391,-1.3344,-1.3262,-1.3187,-1.3074,-1.3001,-1.2856,-1.2743,-1.2626,-1.2563,-1.2536,-1.253,-1.2509,-1.2522,-1.2549,-1.2531,-1.2689,-1.2533,-1.2534,-1.2534,-1.2535,-1.2535,-1.3799,-1.373,-1.3634,-1.3531,-1.3459,-1.3378,-1.3303,-1.3237,-1.3142,-1.302,-1.2987,-1.2868,-1.2768,-1.2609,-1.2544,-1.2449,-1.2454,-1.2425,-1.2417,-1.241,-1.2409,-1.2568,-1.2427,-1.2428,-1.2428,-1.2428,-1.2428,0,-1.3682,-1.3618,-1.3525,-1.3405,-1.3323,-1.3309,-1.3211,-1.3143,-1.3039,-1.295,-1.2859,-1.2728,-1.2618,-1.2529,-1.2415,-1.2355,-1.234,-1.2327,-1.2329,-1.2314,-1.2411,-1.2439,-1.2341,-1.2341,-1.2341,-1.2341,-1.2341,-1.2341,-1.3611,-1.3492,-1.3451,-1.3295,-1.3231,-1.3116,-1.3061,-1.2985,-1.2914,-1.277,-1.2679,-1.2623,-1.2532,-1.2412,-1.2309,-1.2286,-1.2244,-1.2233,-1.2207,-1.2298,-1.2308,-1.2317,-1.2342,-1.2226,-1.2225,-1.2117,-1.2116,-1.2115]}]]